Location: *
(30.4476°N, 114.3798°E)
Time: 02:53:23
(UTC+00:00)

Delta 142 - Pass Details

Date: 09 April 2020
Orbit: 548 x 1589 km, 28.4° (Epoch: 31 May)

Event Time Altitude Azimuth Distance (km) Brightness Sun altitude
Exits shadow 21:15:47 12° 270° (W) 2,482 6.0 -10.3°
Maximum altitude 21:21:26 62° 191° (SSW) 848 4.1 -9.2°
Drops below altitude 10° 21:26:07 10° 111° (ESE) 2,049 7.2 -8.2°
Sets 21:28:15 0° 107° (ESE) 2,868 8.1 -7.7°
